Terminal Aerodrome Forecast
Issued by NWS

Home | Current Version | Previous Version | Text Only | Print | Product List | Glossary On
Versions: 1 2 3 4 5 6 7 8 9 10 11 12 13 14 15 16 17 18 19 20 21 22 23 24 25 26 27 28 29 30 31 32 33 34 35 36 37 38
000
FTUS45 KGJT 191120
TAFVEL
TAF
KVEL 191120Z 1912/2012 05005KT P6SM VCSH BKN035 OVC060
     FM191600 07004KT P6SM SCT060 BKN100
     FM192000 VRB04KT P6SM SCT070 BKN110
     FM200200 30004KT P6SM SCT070 BKN110=

USA.gov is the U.S. government's official web portal to all federal, state and local government web resources and services.